Location: Paddlesworth
(51.1000°N, 1.1333°E)
Time: 03:39:14
(UTC+00:00)

Cosmos 1461 - Pass Details

Date: 11 May 2021
Orbit: 509 x 654 km, 65.0° (Epoch: 14 June)

Event Time Altitude Azimuth Distance (km) Brightness Sun altitude
Exits shadow 23:07:24 48° 155° (SSE) 847 3.3 -20.1°
Maximum altitude 23:08:04 53° 124° (SE) 799 3.3 -20.1°
Drops below altitude 10° 23:12:33 10° 48° (NE) 2,031 6.1 -20.2°
Sets 23:14:51 0° 44° (NE) 2,925 7.0 -20.3°
